Location: Davidschlag
(48.4333°N, 14.2833°E)
Time: 14:39:28
(UTC+00:00)

STARLINK-1020 - Pass Details

Date: 27 February 2020
Orbit: 548 x 551 km, 53.0° (Epoch: 28 March)

Event Time Altitude Azimuth Distance (km) Brightness Sun altitude
Rises 17:58:25 0° 260° (W) 2,713 8.9 -13.3°
Reaches altitude 10° 18:00:40 10° 265° (W) 1,821 7.7 -13.7°
Maximum altitude 18:04:45 56° 344° (NNW) 659 4.1 -14.4°
Enters shadow 18:07:26 20° 57° (ENE) 1,297 5.1 -14.8°
